Regional Weather Roundup
Issued by NWS

Home | Current Version | Previous Version | Graphics & Text | Print | Product List | Glossary On
Versions: 1 2 3 4 5 6 7 8 9 10 11 12 13 14 15 16 17 18 19 20 21 22 23 24 25 26 27 28 29 30 31 32 33 34 35 36 37 38 39 40 41 42 43 44 45 46 47 48 49 50
000
ASUS45 KBOI 021810
RWRID
WEATHER ROUNDUP FOR IDAHO
NATIONAL WEATHER SERVICE BOISE ID
1200 PM MDT TUE SEP 02 2014

NOTE: "FAIR" INDICATES FEW OR NO CLOUDS BELOW 12000 FEET
WITH NO SIGNIFICANT WEATHER AND/OR OBSTRUCTIONS TO VISIBILITY

IDZ012-014-021900-
SOUTHWEST IDAHO


CITY           SKY/WX    TMP DP  RH WIND       PRES   REMARKS
BOISE          SUNNY     76  35  22 SE6       29.93F
CALDWELL       SUNNY     72  39  30 S5        29.94F
MOUNTAIN HOME  SUNNY     75  40  28 SE9       29.94F
$$

IDZ016-017-021900-
SOUTHCENTRAL IDAHO


CITY           SKY/WX    TMP DP  RH WIND       PRES   REMARKS
BURLEY         SUNNY     71  44  37 CALM      30.00F
JEROME         SUNNY     70  42  36 VRB5      30.00F
TWIN FALLS     SUNNY     72  47  40 NE7       30.00F
$$

IDZ019>023-021900-
SOUTHEAST IDAHO


CITY           SKY/WX    TMP DP  RH WIND       PRES   REMARKS
IDAHO FALLS    SUNNY     71  39  31 S12       30.03F
POCATELLO      SUNNY     72  39  30 VRB3      30.03F
REXBURG        SUNNY     67  39  35 S12       30.03F
$$

IDZ006-010-011-018-031-032-021900-
CENTRAL IDAHO MOUNTAINS


CITY           SKY/WX    TMP DP  RH WIND       PRES   REMARKS
MCCALL         SUNNY     64  38  38 S8        29.99F
HAILEY         SUNNY     64  37  36 E10       30.06F
STANLEY          N/A     61  32  33 NW7       30.08F
SALMON         SUNNY     61  43  51 N5        29.94F
CHALLIS        SUNNY     65  36  34 VRB5      29.99F
$$

IDZ002-004-006-007-026-021900-
NORTHERN IDAHO


CITY           SKY/WX    TMP DP  RH WIND       PRES   REMARKS
LEWISTON       SUNNY     69  45  41 CALM      29.83F
LOWELL           N/A     67  47  48 CALM      29.85F
COEUR D`ALENE  MOSUNNY   70  45  40 SW9G21    29.83F
MULLAN PASS    PTSUNNY   53  42  66 VRB5      29.95S
$$



USA.gov is the U.S. government's official web portal to all federal, state and local government web resources and services.